| time (UTC) | temp F | wind direction | speed MPH | gust MPH | rain 1hr in | rain 24hr in | rain mn in | humidity % | barometer mb |
| 20260510193904 | 77 | 115 | 2.0 | 8.0 | 0.00 | 0.13 | 0.13 | 77 | 1018.7 |
| 20260510193405 | 77 | 88 | 2.0 | 7.0 | 0.00 | 0.13 | 0.13 | 78 | 1018.7 |
| 20260510192904 | 77 | 103 | 2.0 | 10.0 | 0.00 | 0.13 | 0.13 | 78 | 1018.8 |
| 20260510192405 | 77 | 98 | 1.0 | 8.0 | 0.00 | 0.13 | 0.13 | 78 | 1018.8 |
| 20260510191904 | 77 | 95 | 1.0 | 9.0 | 0.00 | 0.13 | 0.13 | 78 | 1018.9 |
| 20260510191404 | 77 | 105 | 1.0 | 8.0 | 0.00 | 0.13 | 0.13 | 78 | 1018.9 |
| 20260510190905 | 77 | 82 | 2.0 | 9.0 | 0.00 | 0.13 | 0.13 | 78 | 1018.9 |
| 20260510185905 | 77 | 106 | 2.0 | 10.0 | 0.00 | 0.13 | 0.13 | 78 | 1018.8 |
| 20260510185405 | 77 | 96 | 3.0 | 7.0 | 0.00 | 0.13 | 0.13 | 78 | 1018.9 |
| 20260510184904 | 77 | 115 | 2.0 | 10.0 | 0.00 | 0.13 | 0.13 | 78 | 1018.9 |
| 20260510184406 | 77 | 121 | 2.0 | 7.0 | 0.00 | 0.13 | 0.13 | 78 | 1018.8 |
| 20260510183904 | 76 | 123 | 2.0 | 9.0 | 0.00 | 0.13 | 0.13 | 79 | 1018.9 |
| 20260510183405 | 76 | 96 | 1.0 | 7.0 | 0.00 | 0.13 | 0.13 | 80 | 1019.0 |
| 20260510181904 | 77 | 136 | 1.0 | 8.0 | 0.00 | 0.13 | 0.13 | 79 | 1018.9 |
| 20260510181404 | 77 | 120 | 2.0 | 10.0 | 0.00 | 0.13 | 0.13 | 79 | 1019.0 |
| 20260510180403 | 77 | 97 | 3.0 | 10.0 | 0.00 | 0.13 | 0.13 | 79 | 1018.9 |
| 20260510175905 | 77 | 101 | 3.0 | 10.0 | 0.00 | 0.13 | 0.13 | 79 | 1018.9 |
| 20260510175404 | 77 | 90 | 2.0 | 8.0 | 0.00 | 0.13 | 0.13 | 80 | 1018.9 |
| 20260510174905 | 77 | 115 | 3.0 | 8.0 | 0.00 | 0.13 | 0.13 | 80 | 1018.8 |
| 20260510174404 | 77 | 103 | 2.0 | 12.0 | 0.00 | 0.13 | 0.13 | 80 | 1018.7 |
| 20260510173905 | 76 | 88 | 0.0 | 9.0 | 0.00 | 0.13 | 0.13 | 80 | 1018.7 |
| 20260510173405 | 76 | 97 | 1.0 | 8.0 | 0.00 | 0.13 | 0.13 | 80 | 1018.7 |
| 20260510172904 | 77 | 63 | 3.0 | 10.0 | 0.00 | 0.13 | 0.13 | 80 | 1018.7 |
| 20260510172405 | 77 | 77 | 7.0 | 12.0 | 0.00 | 0.13 | 0.13 | 79 | 1018.7 |
| 20260510171904 | 77 | 75 | 6.0 | 14.0 | 0.00 | 0.13 | 0.13 | 79 | 1018.7 |
| 20260510170905 | 77 | 111 | 3.0 | 9.0 | 0.00 | 0.13 | 0.13 | 77 | 1018.7 |
| 20260510170405 | 77 | 146 | 2.0 | 10.0 | 0.00 | 0.13 | 0.13 | 76 | 1018.5 |
| 20260510165904 | 77 | 107 | 3.0 | 10.0 | 0.00 | 0.13 | 0.13 | 75 | 1018.6 |
| 20260510165404 | 77 | 77 | 2.0 | 9.0 | 0.00 | 0.13 | 0.13 | 76 | 1018.5 |
| 20260510164905 | 77 | 94 | 5.0 | 13.0 | 0.00 | 0.13 | 0.13 | 77 | 1018.5 |
| 20260510163904 | 77 | 121 | 4.0 | 12.0 | 0.00 | 0.13 | 0.13 | 79 | 1018.4 |
| 20260510162904 | 77 | 103 | 3.0 | 10.0 | 0.00 | 0.13 | 0.13 | 79 | 1018.3 |
| 20260510162406 | 77 | 103 | 2.0 | 7.0 | 0.00 | 0.13 | 0.13 | 78 | 1018.3 |
| 20260510161905 | 77 | 98 | 2.0 | 8.0 | 0.00 | 0.13 | 0.13 | 78 | 1018.2 |
| 20260510161404 | 77 | 80 | 1.0 | 8.0 | 0.00 | 0.13 | 0.13 | 77 | 1018.2 |
| 20260510160905 | 77 | 99 | 2.0 | 12.0 | 0.00 | 0.13 | 0.13 | 78 | 1018.2 |
| 20260510160406 | 77 | 127 | 0.0 | 8.0 | 0.00 | 0.13 | 0.13 | 78 | 1018.2 |
| 20260510155904 | 77 | 98 | 2.0 | 8.0 | 0.00 | 0.13 | 0.13 | 78 | 1018.2 |
| 20260510155404 | 77 | 105 | 2.0 | 12.0 | 0.00 | 0.13 | 0.13 | 78 | 1018.1 |
| 20260510154905 | 77 | 84 | 1.0 | 12.0 | 0.00 | 0.13 | 0.13 | 78 | 1018.1 |
| 20260510153905 | 77 | 106 | 0.0 | 10.0 | 0.00 | 0.13 | 0.13 | 78 | 1018.0 |
| 20260510153404 | 77 | 121 | 2.0 | 12.0 | 0.00 | 0.13 | 0.13 | 78 | 1018.0 |
| 20260510152905 | 77 | 117 | 3.0 | 8.0 | 0.00 | 0.13 | 0.13 | 78 | 1017.9 |
| 20260510152404 | 77 | 112 | 2.0 | 9.0 | 0.00 | 0.13 | 0.13 | 78 | 1017.8 |
| 20260510151904 | 77 | 104 | 2.0 | 10.0 | 0.00 | 0.13 | 0.13 | 77 | 1017.7 |
| 20260510151405 | 77 | 109 | 1.0 | 10.0 | 0.00 | 0.13 | 0.13 | 77 | 1017.7 |
| 20260510150904 | 77 | 88 | 5.0 | 12.0 | 0.00 | 0.13 | 0.13 | 77 | 1017.8 |
| 20260510145906 | 77 | 115 | 1.0 | 6.0 | 0.00 | 0.13 | 0.13 | 78 | 1017.7 |
| 20260510145406 | 77 | 99 | 1.0 | 10.0 | 0.00 | 0.13 | 0.13 | 78 | 1017.6 |
| 20260510144904 | 77 | 122 | 0.0 | 3.0 | 0.00 | 0.13 | 0.13 | 78 | 1017.7 |
| 20260510144405 | 77 | 69 | 0.0 | 8.0 | 0.00 | 0.13 | 0.13 | 78 | 1017.6 |
| 20260510143905 | 77 | 84 | 2.0 | 8.0 | 0.00 | 0.13 | 0.13 | 78 | 1017.6 |
| 20260510143404 | 77 | 133 | 1.0 | 12.0 | 0.00 | 0.13 | 0.13 | 78 | 1017.6 |
| 20260510142905 | 77 | 102 | 5.0 | 12.0 | 0.00 | 0.13 | 0.13 | 77 | 1017.5 |
| 20260510142405 | 77 | 99 | 2.0 | 8.0 | 0.00 | 0.13 | 0.13 | 77 | 1017.5 |
| 20260510141905 | 77 | 102 | 2.0 | 10.0 | 0.00 | 0.13 | 0.13 | 77 | 1017.5 |
| 20260510141405 | 77 | 119 | 3.0 | 12.0 | 0.00 | 0.13 | 0.13 | 77 | 1017.5 |
| 20260510140905 | 77 | 118 | 2.0 | 12.0 | 0.00 | 0.13 | 0.13 | 77 | 1017.4 |
| 20260510140404 | 77 | 129 | 1.0 | 9.0 | 0.00 | 0.13 | 0.13 | 77 | 1017.4 |
| 20260510135404 | 77 | 133 | 1.0 | 8.0 | 0.00 | 0.13 | 0.13 | 77 | 1017.4 |
| 20260510134903 | 77 | 100 | 2.0 | 10.0 | 0.00 | 0.13 | 0.13 | 77 | 1017.3 |
| 20260510134405 | 78 | 118 | 1.0 | 8.0 | 0.00 | 0.13 | 0.13 | 77 | 1017.3 |
| 20260510133405 | 78 | 111 | 1.0 | 8.0 | 0.00 | 0.13 | 0.13 | 76 | 1017.3 |
| 20260510132405 | 78 | 92 | 4.0 | 12.0 | 0.00 | 0.13 | 0.13 | 75 | 1017.3 |
| 20260510131905 | 79 | 111 | 2.0 | 10.0 | 0.00 | 0.13 | 0.13 | 75 | 1017.3 |
| 20260510131404 | 79 | 79 | 5.0 | 12.0 | 0.00 | 0.13 | 0.13 | 74 | 1017.2 |
| 20260510130404 | 79 | 97 | 3.0 | 10.0 | 0.00 | 0.13 | 0.13 | 74 | 1017.2 |
| 20260510125904 | 79 | 110 | 2.0 | 12.0 | 0.00 | 0.13 | 0.13 | 73 | 1017.3 |
| 20260510125404 | 79 | 125 | 7.0 | 14.0 | 0.00 | 0.13 | 0.13 | 72 | 1017.2 |
| 20260510124904 | 79 | 85 | 1.0 | 10.0 | 0.00 | 0.13 | 0.13 | 73 | 1017.2 |
| 20260510124404 | 79 | 113 | 2.0 | 12.0 | 0.00 | 0.13 | 0.13 | 73 | 1017.0 |
| 20260510123904 | 80 | 106 | 3.0 | 14.0 | 0.00 | 0.13 | 0.13 | 72 | 1017.0 |
| 20260510123404 | 80 | 113 | 5.0 | 14.0 | 0.00 | 0.13 | 0.13 | 73 | 1017.0 |
| 20260510122904 | 80 | 98 | 7.0 | 13.0 | 0.00 | 0.13 | 0.13 | 72 | 1017.1 |
| 20260510122405 | 80 | 99 | 7.0 | 20.0 | 0.00 | 0.13 | 0.13 | 72 | 1017.1 |
| 20260510121904 | 80 | 79 | 5.0 | 14.0 | 0.00 | 0.13 | 0.13 | 72 | 1016.9 |
| 20260510121405 | 80 | 113 | 3.0 | 12.0 | 0.00 | 0.13 | 0.13 | 73 | 1016.9 |
| 20260510120905 | 80 | 103 | 8.0 | 18.0 | 0.00 | 0.13 | 0.13 | 73 | 1016.9 |
| 20260510115904 | 80 | 81 | 5.0 | 16.0 | 0.00 | 0.13 | 0.13 | 72 | 1016.9 |
| 20260510115405 | 80 | 69 | 6.0 | 15.0 | 0.00 | 0.13 | 0.13 | 72 | 1017.0 |
| 20260510114905 | 80 | 77 | 2.0 | 9.0 | 0.00 | 0.13 | 0.13 | 73 | 1016.9 |
| 20260510114405 | 80 | 104 | 4.0 | 13.0 | 0.00 | 0.13 | 0.13 | 72 | 1016.9 |
| 20260510113904 | 80 | 118 | 7.0 | 16.0 | 0.00 | 0.13 | 0.13 | 72 | 1016.9 |
| 20260510112904 | 81 | 118 | 2.0 | 10.0 | 0.00 | 0.13 | 0.13 | 72 | 1016.8 |
| 20260510111904 | 80 | 108 | 6.0 | 13.0 | 0.00 | 0.13 | 0.13 | 72 | 1016.8 |
| 20260510111404 | 80 | 72 | 4.0 | 16.0 | 0.00 | 0.13 | 0.13 | 72 | 1016.7 |
| 20260510110904 | 80 | 87 | 6.0 | 18.0 | 0.00 | 0.13 | 0.13 | 72 | 1016.7 |
| 20260510110405 | 80 | 68 | 6.0 | 13.0 | 0.00 | 0.13 | 0.13 | 73 | 1016.7 |
| 20260510105904 | 80 | 88 | 4.0 | 12.0 | 0.00 | 0.13 | 0.13 | 73 | 1016.7 |
| 20260510104904 | 80 | 110 | 4.0 | 13.0 | 0.00 | 0.13 | 0.13 | 73 | 1016.8 |
| 20260510104404 | 80 | 85 | 5.0 | 12.0 | 0.00 | 0.13 | 0.13 | 74 | 1016.8 |
| 20260510102904 | 80 | 62 | 5.0 | 16.0 | 0.00 | 0.13 | 0.13 | 73 | 1016.9 |
| 20260510102403 | 80 | 72 | 3.0 | 14.0 | 0.00 | 0.13 | 0.13 | 73 | 1016.9 |
| 20260510101904 | 80 | 100 | 4.0 | 15.0 | 0.00 | 0.13 | 0.13 | 73 | 1016.8 |
| 20260510100404 | 80 | 110 | 4.0 | 14.0 | 0.00 | 0.13 | 0.13 | 74 | 1016.9 |
| 20260510095404 | 81 | 99 | 2.0 | 13.0 | 0.00 | 0.13 | 0.13 | 75 | 1016.9 |
| 20260510094904 | 80 | 83 | 4.0 | 16.0 | 0.00 | 0.13 | 0.13 | 75 | 1016.9 |
| 20260510094404 | 80 | 61 | 7.0 | 14.0 | 0.00 | 0.13 | 0.13 | 73 | 1016.9 |
| 20260510093904 | 80 | 74 | 8.0 | 15.0 | 0.00 | 0.13 | 0.13 | 73 | 1016.8 |
| 20260510092905 | 80 | 98 | 6.0 | 16.0 | 0.00 | 0.13 | 0.13 | 75 | 1017.0 |
| 20260510092405 | 80 | 103 | 6.0 | 18.0 | 0.00 | 0.13 | 0.13 | 75 | 1017.1 |
| 20260510091904 | 81 | 102 | 7.0 | 17.0 | 0.00 | 0.13 | 0.13 | 74 | 1017.1 |
| 20260510091405 | 80 | 112 | 5.0 | 17.0 | 0.00 | 0.13 | 0.13 | 75 | 1017.1 |
| 20260510090404 | 80 | 65 | 8.0 | 20.0 | 0.00 | 0.13 | 0.13 | 74 | 1017.1 |
| 20260510085904 | 80 | 109 | 4.0 | 10.0 | 0.00 | 0.13 | 0.13 | 77 | 1017.2 |
| 20260510085404 | 80 | 117 | 6.0 | 13.0 | 0.00 | 0.13 | 0.13 | 76 | 1017.3 |
| 20260510084404 | 80 | 87 | 2.0 | 12.0 | 0.00 | 0.13 | 0.13 | 77 | 1017.3 |
| 20260510083907 | 80 | 85 | 4.0 | 18.0 | 0.00 | 0.13 | 0.13 | 76 | 1017.4 |
| 20260510083403 | 80 | 110 | 6.0 | 16.0 | 0.01 | 0.13 | 0.13 | 76 | 1017.5 |
| 20260510082905 | 80 | 88 | 1.0 | 10.0 | 0.01 | 0.13 | 0.13 | 78 | 1017.6 |
| 20260510082404 | 79 | 115 | 3.0 | 15.0 | 0.01 | 0.13 | 0.13 | 77 | 1017.6 |
| 20260510081904 | 79 | 122 | 7.0 | 16.0 | 0.01 | 0.13 | 0.13 | 77 | 1017.7 |
| 20260510081404 | 79 | 123 | 9.0 | 15.0 | 0.01 | 0.13 | 0.13 | 77 | 1017.9 |
| 20260510080904 | 79 | 109 | 6.0 | 13.0 | 0.01 | 0.13 | 0.13 | 79 | 1017.9 |
| 20260510080404 | 79 | 124 | 6.0 | 17.0 | 0.01 | 0.13 | 0.13 | 80 | 1017.9 |
| 20260510075404 | 79 | 106 | 6.0 | 16.0 | 0.01 | 0.13 | 0.13 | 82 | 1018.0 |
| 20260510074904 | 79 | 73 | 5.0 | 16.0 | 0.02 | 0.13 | 0.13 | 83 | 1018.0 |
| 20260510074404 | 78 | 78 | 8.0 | 20.0 | 0.02 | 0.15 | 0.13 | 83 | 1018.1 |
| 20260510073904 | 78 | 73 | 4.0 | 14.0 | 0.02 | 0.20 | 0.13 | 85 | 1018.2 |
| 20260510073404 | 78 | 89 | 5.0 | 18.0 | 0.03 | 0.24 | 0.12 | 85 | 1018.4 |
| 20260510072904 | 77 | 81 | 6.0 | 17.0 | 0.04 | 0.24 | 0.12 | 89 | 1018.3 |
| 20260510071904 | 75 | 73 | 3.0 | 9.0 | 0.12 | 0.24 | 0.12 | 90 | 1018.6 |
| 20260510071404 | 75 | 47 | 2.0 | 5.0 | 0.12 | 0.24 | 0.12 | 90 | 1018.7 |
| 20260510070904 | 75 | 76 | 2.0 | 7.0 | 0.12 | 0.24 | 0.12 | 90 | 1018.8 |
| 20260510070404 | 75 | 89 | 0.0 | 0.0 | 0.12 | 0.24 | 0.12 | 89 | 1018.8 |
| 20260510065404 | 74 | 100 | 0.0 | 3.0 | 0.12 | 0.24 | 0.12 | 89 | 1018.9 |
| 20260510064404 | 75 | 136 | 0.0 | 2.0 | 0.11 | 0.23 | 0.11 | 89 | 1019.1 |
| 20260510063404 | 75 | 46 | 3.0 | 12.0 | 0.09 | 0.20 | 0.09 | 88 | 1019.3 |
| 20260510062904 | 75 | 90 | 0.0 | 0.0 | 0.08 | 0.20 | 0.08 | 87 | 1019.4 |
| 20260510062405 | 76 | 65 | 0.0 | 1.0 | 0.07 | 0.19 | 0.07 | 85 | 1019.4 |
| 20260510061904 | 76 | 158 | 0.0 | 6.0 | 0.00 | 0.12 | 0.00 | 83 | 1019.3 |
| 20260510061404 | 76 | 119 | 1.0 | 8.0 | 0.00 | 0.12 | 0.00 | 82 | 1019.3 |
| 20260510060904 | 76 | 129 | 1.0 | 12.0 | 0.00 | 0.12 | 0.00 | 81 | 1019.3 |
| 20260510055904 | 78 | 109 | 3.0 | 13.0 | 0.00 | 0.12 | 0.00 | 78 | 1019.5 |
| 20260510055404 | 78 | 116 | 9.0 | 17.0 | 0.00 | 0.12 | 0.00 | 77 | 1019.3 |
| 20260510054904 | 78 | 135 | 7.0 | 14.0 | 0.00 | 0.12 | 0.00 | 79 | 1019.2 |
| 20260510054404 | 79 | 92 | 7.0 | 15.0 | 0.00 | 0.12 | 0.00 | 79 | 1019.3 |
| 20260510053904 | 79 | 142 | 3.0 | 12.0 | 0.00 | 0.12 | 0.00 | 79 | 1019.3 |
| 20260510053404 | 79 | 141 | 5.0 | 12.0 | 0.00 | 0.12 | 0.00 | 79 | 1019.2 |
| 20260510052404 | 79 | 83 | 9.0 | 13.0 | 0.00 | 0.12 | 0.00 | 77 | 1019.2 |
| 20260510050404 | 78 | 95 | 5.0 | 13.0 | 0.00 | 0.12 | 0.00 | 78 | 1019.1 |
| 20260510045905 | 78 | 65 | 2.0 | 12.0 | 0.00 | 0.13 | 0.00 | 77 | 1019.1 |
| 20260510045404 | 78 | 126 | 7.0 | 15.0 | 0.00 | 0.13 | 0.00 | 76 | 1019.1 |
| 20260510044404 | 78 | 139 | 4.0 | 12.0 | 0.00 | 0.13 | 0.00 | 77 | 1018.9 |
| 20260510042904 | 78 | 123 | 1.0 | 10.0 | 0.00 | 0.13 | 0.00 | 78 | 1018.9 |
| 20260510042404 | 78 | 91 | 4.0 | 10.0 | 0.00 | 0.13 | 0.00 | 79 | 1019.0 |
| 20260510034904 | 74 | 140 | 1.0 | 5.0 | 0.00 | 0.13 | 0.00 | 87 | 1018.7 |
| 20260510034404 | 74 | 144 | 0.0 | 1.0 | 0.00 | 0.13 | 0.00 | 87 | 1018.7 |
| 20260510033904 | 74 | 148 | 0.0 | 0.0 | 0.00 | 0.13 | 0.00 | 87 | 1018.7 |
| 20260510033404 | 74 | 147 | 0.0 | 0.0 | 0.00 | 0.13 | 0.00 | 87 | 1018.6 |
| 20260510032904 | 73 | 147 | 0.0 | 0.0 | 0.00 | 0.13 | 0.00 | 88 | 1018.5 |
| 20260510032404 | 73 | 146 | 0.0 | 0.0 | 0.00 | 0.13 | 0.00 | 88 | 1018.5 |
| 20260510031904 | 73 | 146 | 0.0 | 0.0 | 0.00 | 0.13 | 0.00 | 88 | 1018.5 |
| 20260510031403 | 73 | 147 | 0.0 | 0.0 | 0.00 | 0.13 | 0.00 | 88 | 1018.4 |
| 20260510030404 | 72 | 145 | 0.0 | 0.0 | 0.00 | 0.13 | 0.00 | 88 | 1018.5 |
| 20260510025904 | 72 | 163 | 0.0 | 0.0 | 0.00 | 0.13 | 0.00 | 88 | 1018.4 |
| 20260510025404 | 72 | 107 | 0.0 | 0.0 | 0.00 | 0.13 | 0.00 | 88 | 1018.3 |
| 20260510024904 | 71 | 146 | 0.0 | 3.0 | 0.00 | 0.13 | 0.00 | 88 | 1018.3 |
| 20260510024404 | 71 | 14 | 1.0 | 8.0 | 0.00 | 0.13 | 0.00 | 88 | 1018.2 |
| 20260510023904 | 71 | 158 | 1.0 | 5.0 | 0.00 | 0.13 | 0.00 | 87 | 1018.2 |
| 20260510023405 | 71 | 184 | 0.0 | 5.0 | 0.00 | 0.13 | 0.00 | 87 | 1018.1 |
| 20260510022904 | 71 | 160 | 0.0 | 6.0 | 0.00 | 0.13 | 0.00 | 87 | 1018.0 |
| 20260510022404 | 71 | 188 | 1.0 | 6.0 | 0.00 | 0.13 | 0.00 | 86 | 1018.0 |
| 20260510021404 | 71 | 171 | 0.0 | 0.0 | 0.00 | 0.13 | 0.00 | 85 | 1018.0 |
| 20260510020404 | 71 | 165 | 0.0 | 0.0 | 0.00 | 0.13 | 0.00 | 84 | 1017.8 |
| 20260510015904 | 71 | 162 | 0.0 | 3.0 | 0.00 | 0.13 | 0.00 | 83 | 1017.8 |
| 20260510015404 | 71 | 131 | 1.0 | 5.0 | 0.00 | 0.13 | 0.00 | 83 | 1017.7 |
| 20260510014904 | 71 | 170 | 1.0 | 5.0 | 0.00 | 0.13 | 0.00 | 83 | 1017.5 |
| 20260510014404 | 71 | 162 | 0.0 | 2.0 | 0.00 | 0.13 | 0.00 | 83 | 1017.6 |
| 20260510013404 | 71 | 169 | 0.0 | 5.0 | 0.00 | 0.13 | 0.00 | 82 | 1017.4 |
| 20260510012904 | 71 | 169 | 0.0 | 0.0 | 0.00 | 0.13 | 0.00 | 82 | 1017.5 |
| 20260510012405 | 71 | 180 | 0.0 | 0.0 | 0.00 | 0.13 | 0.00 | 82 | 1017.5 |
| 20260510011904 | 71 | 181 | 0.0 | 0.0 | 0.00 | 0.13 | 0.00 | 82 | 1017.5 |
| 20260510011404 | 71 | 177 | 2.0 | 7.0 | 0.00 | 0.13 | 0.00 | 82 | 1017.5 |
| 20260510010404 | 71 | 178 | 1.0 | 6.0 | 0.00 | 0.13 | 0.00 | 82 | 1017.5 |
| 20260510005904 | 71 | 183 | 0.0 | 0.0 | 0.00 | 0.13 | 0.00 | 82 | 1017.5 |
| 20260510005405 | 71 | 182 | 1.0 | 6.0 | 0.00 | 0.13 | 0.00 | 82 | 1017.5 |
| 20260510004905 | 71 | 178 | 1.0 | 5.0 | 0.00 | 0.13 | 0.00 | 82 | 1017.6 |
| 20260510004405 | 71 | 170 | 0.0 | 3.0 | 0.00 | 0.13 | 0.00 | 82 | 1017.6 |
| 20260510003904 | 71 | 168 | 1.0 | 7.0 | 0.00 | 0.13 | 0.00 | 82 | 1017.5 |
| 20260510003405 | 71 | 178 | 0.0 | 5.0 | 0.00 | 0.13 | 0.00 | 82 | 1017.5 |
| 20260510002904 | 71 | 188 | 0.0 | 3.0 | 0.00 | 0.13 | 0.00 | 82 | 1017.5 |
| 20260510002404 | 71 | 179 | 0.0 | 5.0 | 0.00 | 0.13 | 0.00 | 82 | 1017.5 |
| 20260510001905 | 71 | 179 | 0.0 | 5.0 | 0.00 | 0.13 | 0.00 | 82 | 1017.5 |
| 20260510000404 | 71 | 185 | 0.0 | 0.0 | 0.00 | 0.13 | 0.00 | 82 | 1017.6 |
| 20260509235904 | 71 | 191 | 0.0 | 5.0 | 0.00 | 0.13 | 0.00 | 82 | 1017.6 |
| 20260509235404 | 71 | 191 | 0.0 | 3.0 | 0.00 | 0.13 | 0.00 | 82 | 1017.7 |
| 20260509234904 | 71 | 192 | 0.0 | 3.0 | 0.00 | 0.13 | 0.00 | 83 | 1017.8 |
| 20260509234405 | 71 | 176 | 0.0 | 0.0 | 0.00 | 0.13 | 0.00 | 83 | 1017.8 |
| 20260509232904 | 71 | 172 | 0.0 | 0.0 | 0.00 | 0.13 | 0.00 | 83 | 1017.7 |
| 20260509231904 | 72 | 183 | 0.0 | 0.0 | 0.00 | 0.13 | 0.00 | 82 | 1017.8 |
| 20260509225904 | 72 | 176 | 0.0 | 0.0 | 0.00 | 0.13 | 0.00 | 82 | 1017.8 |
| 20260509225404 | 72 | 176 | 0.0 | 0.0 | 0.00 | 0.13 | 0.00 | 81 | 1017.8 |
| 20260509224404 | 73 | 196 | 0.0 | 0.0 | 0.00 | 0.13 | 0.00 | 80 | 1017.8 |
| 20260509223904 | 73 | 197 | 0.0 | 0.0 | 0.00 | 0.13 | 0.00 | 79 | 1017.9 |
| 20260509223404 | 74 | 198 | 0.0 | 0.0 | 0.00 | 0.13 | 0.00 | 79 | 1017.9 |
| 20260509222905 | 74 | 198 | 0.0 | 0.0 | 0.00 | 0.13 | 0.00 | 78 | 1017.9 |
| 20260509222404 | 75 | 114 | 0.0 | 0.0 | 0.00 | 0.13 | 0.00 | 77 | 1017.8 |
| 20260509221404 | 75 | 123 | 0.0 | 6.0 | 0.00 | 0.13 | 0.00 | 77 | 1017.9 |
| 20260509220904 | 75 | 117 | 0.0 | 3.0 | 0.00 | 0.13 | 0.00 | 78 | 1018.0 |
| 20260509220405 | 75 | 117 | 0.0 | 3.0 | 0.00 | 0.13 | 0.00 | 77 | 1018.0 |
| 20260509215904 | 75 | 139 | 1.0 | 5.0 | 0.00 | 0.13 | 0.00 | 77 | 1018.0 |
| 20260509215405 | 75 | 147 | 0.0 | 0.0 | 0.00 | 0.13 | 0.00 | 76 | 1018.2 |
| 20260509214904 | 75 | 117 | 0.0 | 5.0 | 0.00 | 0.13 | 0.00 | 76 | 1018.2 |
| 20260509214405 | 76 | 106 | 0.0 | 5.0 | 0.00 | 0.13 | 0.00 | 75 | 1018.2 |
| 20260509213904 | 76 | 111 | 2.0 | 8.0 | 0.00 | 0.13 | 0.00 | 75 | 1018.2 |
| 20260509213405 | 76 | 134 | 2.0 | 9.0 | 0.00 | 0.13 | 0.00 | 74 | 1018.2 |
| 20260509212904 | 76 | 94 | 1.0 | 6.0 | 0.00 | 0.13 | 0.00 | 75 | 1018.3 |
| 20260509212404 | 76 | 133 | 2.0 | 10.0 | 0.00 | 0.13 | 0.00 | 75 | 1018.2 |
| 20260509211904 | 76 | 148 | 4.0 | 12.0 | 0.00 | 0.13 | 0.00 | 76 | 1018.3 |
| 20260509211404 | 76 | 102 | 1.0 | 7.0 | 0.00 | 0.13 | 0.00 | 76 | 1018.4 |
| 20260509210904 | 76 | 72 | 2.0 | 12.0 | 0.00 | 0.13 | 0.00 | 76 | 1018.4 |
| 20260509210404 | 76 | 121 | 3.0 | 14.0 | 0.00 | 0.13 | 0.00 | 77 | 1018.4 |
| 20260509205904 | 76 | 94 | 2.0 | 9.0 | 0.00 | 0.13 | 0.00 | 78 | 1018.6 |
| 20260509205404 | 76 | 97 | 3.0 | 10.0 | 0.00 | 0.13 | 0.00 | 78 | 1018.6 |
| 20260509204905 | 76 | 138 | 2.0 | 9.0 | 0.00 | 0.13 | 0.00 | 79 | 1018.6 |
| 20260509204404 | 76 | 121 | 1.0 | 9.0 | 0.00 | 0.13 | 0.00 | 79 | 1018.7 |
| 20260509203905 | 76 | 106 | 1.0 | 8.0 | 0.00 | 0.13 | 0.00 | 78 | 1018.8 |
| 20260509203405 | 76 | 83 | 2.0 | 8.0 | 0.00 | 0.13 | 0.00 | 78 | 1018.8 |
| 20260509201404 | 76 | 105 | 1.0 | 9.0 | 0.00 | 0.13 | 0.00 | 78 | 1019.0 |
| 20260509200904 | 76 | 92 | 2.0 | 12.0 | 0.00 | 0.13 | 0.00 | 77 | 1019.0 |
| 20260509200404 | 76 | 94 | 2.0 | 10.0 | 0.00 | 0.13 | 0.00 | 77 | 1019.0 |
| 20260509195904 | 76 | 130 | 4.0 | 12.0 | 0.00 | 0.13 | 0.13 | 77 | 1019.0 |
| 20260509194904 | 76 | 112 | 1.0 | 8.0 | 0.00 | 0.13 | 0.13 | 78 | 1019.1 |
| 20260509194404 | 76 | 92 | 1.0 | 9.0 | 0.00 | 0.13 | 0.13 | 78 | 1019.1 |